[[{"header":{"parameterUnit":"m.s-1","parameterCategory":2,"la1":30.2991,"la2":30.254,"lo1":-89.0895,"lo2":-89.0444,"dy":0.0017,"dx":0.0017,"nx":28,"ny":28,"refTime":"2024-11-28T03:00:00:Z","depth":"0","parameterNumber":2,"parameterNumberName":"U-component_of_CURRENTS"},"data":[0,0,0,0,0,0,0,0,0,0,0,0,0,0,0,0,0,0,0,0,0,0,0,0,0,0,0,0,0,0,0,0,0,0,0,0,0,0,0,0,0,0,0,0,0,0,0,0,0,0,0,0,0,0,0,0,0,0,-0.2313,-0.2314,0,-0.2331,-0.2331,-0.2331,-0.2306,-0.2305,-0.2304,-0.2304,-0.23,-0.23,-0.2301,0,0,0,0,0,0,0,0,0,0,0,0,0,-0.2274,-0.2275,-0.2313,-0.2314,-0.2314,-0.2331,-0.2331,-0.2331,-0.2306,-0.2305,-0.2304,-0.2303,-0.23,-0.23,-0.2301,0,0,0,0,0,0,0,0,0,0,0,0,0,-0.229,-0.2275,-0.2313,-0.2305,-0.2304,-0.2331,-0.2331,-0.2331,-0.2306,-0.2305,-0.2304,-0.2303,-0.2299,-0.23,-0.2301,-0.233,0,0,-0.2304,-0.2304,0,0,0,0,0,0,0,0,-0.2289,-0.2291,-0.2305,-0.2305,-0.2305,-0.2316,-0.2316,-0.233,-0.2306,-0.2304,-0.2304,-0.2302,-0.2305,-0.2306,-0.231,-0.233,-0.2329,-0.2304,-0.2305,-0.2305,-0.2305,0,0,0,0,0,0,0,-0.2288,-0.2291,-0.2319,-0.2306,-0.2306,-0.2306,-0.2306,-0.2319,-0.2309,-0.2304,-0.2303,-0.2307,-0.2304,-0.2309,-0.2309,-0.2329,-0.2304,-0.2305,-0.2305,-0.2306,-0.2364,-0.2365,0,0,0,0,0,0,-0.229,-0.229,-0.2318,-0.232,-0.2296,-0.2307,-0.2308,-0.2313,-0.2309,-0.2309,-0.2308,-0.2306,-0.2308,-0.2308,-0.2309,-0.2334,-0.2305,-0.2306,-0.2306,-0.2363,-0.2364,-0.2365,0,0,0,0,0,0,-0.2289,-0.2292,-0.2318,-0.2306,-0.2309,-0.2309,-0.2315,-0.2314,-0.2312,-0.2313,-0.2311,-0.2307,-0.2307,-0.2308,-0.232,-0.2334,-0.2306,-0.2307,-0.2362,-0.2364,-0.2365,-0.239,0,0,0,0,0,0,-0.2287,-0.2292,-0.2292,-0.2306,-0.231,-0.2335,-0.2316,-0.2315,-0.2318,-0.2315,-0.2312,-0.2311,-0.2306,-0.2319,-0.2321,-0.2335,-0.2308,-0.2361,-0.2363,-0.2364,-0.2387,-0.2392,-0.2395,0,0,0,0,0,-0.2286,-0.2295,-0.2292,-0.2295,-0.2312,-0.2336,-0.2338,-0.2332,-0.2319,-0.2325,-0.2322,-0.2311,-0.2333,-0.2321,-0.2323,-0.2337,-0.236,-0.2362,-0.2364,-0.2386,-0.2391,-0.2395,0,0,0,0,0,0,-0.2278,-0.2294,-0.2291,-0.2303,-0.2318,-0.2332,-0.2336,-0.2335,-0.2338,-0.2331,-0.2325,-0.2325,-0.2341,-0.234,-0.2327,-0.236,-0.2344,-0.2347,-0.236,-0.2365,-0.2368,-0.2368,-0.2309,0,0,0,0,0,-0.2278,-0.2284,-0.2304,-0.2311,-0.232,-0.2328,-0.2334,-0.2335,-0.2343,-0.2342,-0.2341,-0.2344,-0.2355,-0.2359,-0.2367,-0.2388,-0.2382,-0.2399,-0.2403,-0.2406,-0.2408,-0.2419,-0.2424,-0.2373,-0.2373,-0.2373,0,0,-0.2275,-0.2285,-0.2287,-0.2309,-0.2317,-0.2339,-0.2328,-0.2343,-0.2358,-0.2343,-0.2357,-0.2358,-0.2364,-0.2384,-0.2392,-0.2383,-0.2417,-0.2409,-0.2411,-0.2412,-0.2422,-0.2426,-0.2431,-0.2374,-0.2374,-0.2374,0,0,-0.2279,-0.2284,-0.2293,-0.2311,-0.2331,-0.2343,-0.2348,-0.2366,-0.2368,-0.2389,-0.2381,-0.2393,-0.2406,-0.2416,-0.2422,-0.2457,-0.2437,-0.2456,-0.2475,-0.2486,-0.249,-0.2493,-0.2484,-0.2487,-0.2458,-0.2458,-0.2458,0,-0.2275,-0.229,-0.2301,-0.2321,-0.2337,-0.2346,-0.2368,-0.2382,-0.24,-0.2408,-0.2395,-0.2424,-0.2425,-0.2456,-0.2462,-0.2466,-0.2458,-0.2454,-0.249,-0.2493,-0.2496,-0.2487,-0.2489,-0.2459,-0.2459,-0.2459,-0.2459,0,-0.2289,-0.2305,-0.2315,-0.2342,-0.2364,-0.2384,-0.2411,-0.2427,-0.2429,-0.2441,-0.2466,-0.2471,-0.2486,-0.2491,-0.2484,-0.2512,-0.2494,-0.2492,-0.2475,-0.2503,-0.2491,-0.2493,-0.2461,-0.2461,-0.246,-0.246,0,0,-0.2269,-0.2315,-0.2317,-0.2333,-0.2376,-0.2394,-0.2431,-0.2465,-0.2483,-0.2498,-0.2519,-0.254,-0.2535,-0.2542,-0.2539,-0.2546,-0.2556,-0.2524,-0.2524,-0.251,-0.2561,-0.2533,-0.2532,-0.2555,-0.2556,-0.2556,-0.2541,0,-0.2274,-0.2309,-0.2337,-0.2373,-0.2394,-0.2427,-0.2461,-0.2494,-0.2514,-0.2538,-0.2551,-0.2568,-0.2558,-0.256,-0.2569,-0.2559,-0.2563,-0.2559,-0.2542,-0.2541,-0.2508,-0.2535,-0.2484,-0.2465,-0.2543,-0.2543,-0.2543,0,-0.2273,-0.2299,-0.2333,-0.2385,-0.2398,-0.2423,-0.2473,-0.2506,-0.2552,-0.2568,-0.2594,-0.26,-0.2619,-0.26,-0.2606,-0.26,-0.2583,-0.2573,-0.2572,-0.2539,-0.2517,-0.2452,-0.2465,-0.2453,-0.2546,-0.2546,-0.2546,0,-0.2238,-0.2293,-0.2316,-0.2335,-0.2398,-0.2418,-0.2451,-0.2506,-0.2537,-0.2581,-0.2604,-0.2628,-0.2638,-0.263,-0.2616,-0.2606,-0.2613,-0.2599,-0.256,-0.2557,-0.2508,-0.2499,-0.2503,-0.2604,-0.2604,-0.2604,-0.2604,0,-0.2226,-0.2242,-0.2297,-0.2308,-0.2338,-0.2393,-0.2429,-0.247,-0.253,-0.2568,-0.2608,-0.2641,-0.2645,-0.2654,-0.2628,-0.2603,-0.2626,-0.2567,-0.2557,-0.2514,-0.2507,-0.2489,-0.2493,-0.2604,-0.2604,-0.2604,-0.2604,0,-0.2174,-0.2214,-0.224,-0.23,-0.2318,-0.2335,-0.2408,-0.2434,-0.2505,-0.2557,-0.2572,-0.2645,-0.2657,-0.2657,-0.2646,-0.2619,-0.2553,-0.258,-0.252,-0.2505,-0.2442,-0.245,-0.2397,-0.2318,-0.2524,-0.2524,-0.2523,0,-0.2148,-0.2154,-0.2212,-0.2222,-0.2244,-0.2283,-0.231,-0.2399,-0.2437,-0.2559,-0.2577,-0.2629,-0.2659,-0.2645,-0.261,-0.2568,-0.2526,-0.2483,-0.246,-0.2437,-0.2439,-0.2405,-0.2338,-0.2399,-0.2397,-0.2396,-0.2395,0,-0.2087,-0.2105,-0.2122,-0.2146,-0.217,-0.2207,-0.2258,-0.2293,-0.2405,-0.2471,-0.2556,-0.2598,-0.2627,-0.2591,-0.2552,-0.2503,-0.2421,-0.2454,-0.2452,-0.2362,-0.2303,-0.2222,-0.2402,-0.2383,-0.2385,-0.2385,-0.2386,-0.2386,-0.2024,-0.2019,-0.2037,-0.205,-0.2081,-0.2108,-0.2107,-0.2198,-0.2264,-0.2368,-0.2476,-0.2568,-0.258,-0.2531,-0.2464,-0.2365,-0.235,-0.23,-0.2316,-0.2286,-0.2199,-0.2347,-0.2309,-0.2309,-0.231,-0.2311,-0.2311,0,-0.1933,-0.1932,-0.194,-0.1949,-0.1937,-0.1992,-0.2045,-0.2045,-0.2097,-0.2275,-0.2362,-0.2534,-0.248,-0.2467,-0.2391,-0.2278,-0.2169,-0.2199,-0.2148,-0.2086,-0.2241,-0.2227,-0.2144,-0.2144,-0.2144,-0.2144,-0.2144,-0.2144,-0.1883,-0.1848,-0.1851,-0.1792,-0.1797,-0.1753,-0.1759,-0.1804,-0.1905,-0.2084,-0.2281,-0.2469,-0.2529,-0.257,-0.2405,-0.2263,-0.2135,-0.2069,-0.2033,-0.2182,-0.2193,-0.2203,-0.2192,-0.2102,-0.2102,-0.181,-0.1808,-0.1807]},{"header":{"parameterUnit":"m.s-1","parameterCategory":2,"la1":30.2991,"la2":30.254,"lo1":-89.0895,"lo2":-89.0444,"dy":0.0017,"dx":0.0017,"nx":28,"ny":28,"refTime":"2024-11-28T03:00:00:Z","depth":"0","parameterNumber":3,"parameterNumberName":"V-component_of_CURRENTS"},"data":[0,0,0,0,0,0,0,0,0,0,0,0,0,0,0,0,0,0,0,0,0,0,0,0,0,0,0,0,0,0,0,0,0,0,0,0,0,0,0,0,0,0,0,0,0,0,0,0,0,0,0,0,0,0,0,0,0,0,-0.0406,-0.0406,0,-0.0358,-0.0357,-0.0356,-0.0316,-0.0315,-0.0315,-0.0315,-0.0225,-0.0223,-0.0221,0,0,0,0,0,0,0,0,0,0,0,0,0,-0.0438,-0.0438,-0.0406,-0.0406,-0.0405,-0.0358,-0.0357,-0.0356,-0.0316,-0.0315,-0.0315,-0.0315,-0.0226,-0.0223,-0.0221,0,0,0,0,0,0,0,0,0,0,0,0,0,-0.0409,-0.0438,-0.0406,-0.038,-0.0377,-0.0358,-0.0357,-0.0356,-0.0316,-0.0315,-0.0315,-0.0314,-0.0226,-0.0223,-0.022,-0.0211,0,0,-0.0211,-0.0209,0,0,0,0,0,0,0,0,-0.0411,-0.0408,-0.0385,-0.0382,-0.0379,-0.0343,-0.0335,-0.0306,-0.0316,-0.0338,-0.0315,-0.0314,-0.0262,-0.0256,-0.0247,-0.0207,-0.0203,-0.021,-0.0209,-0.0207,-0.0206,0,0,0,0,0,0,0,-0.0413,-0.041,-0.0386,-0.0384,-0.0381,-0.0362,-0.0358,-0.0329,-0.0302,-0.0336,-0.0333,-0.033,-0.026,-0.025,-0.0244,-0.0201,-0.0211,-0.0208,-0.0206,-0.0205,-0.0149,-0.015,0,0,0,0,0,0,-0.0423,-0.0412,-0.0387,-0.0384,-0.0395,-0.0362,-0.0357,-0.0354,-0.0303,-0.0295,-0.033,-0.0328,-0.0255,-0.0248,-0.0241,-0.0229,-0.0207,-0.0204,-0.0203,-0.0149,-0.0149,-0.015,0,0,0,0,0,0,-0.0424,-0.0422,-0.0389,-0.0398,-0.0393,-0.0362,-0.0359,-0.0354,-0.0343,-0.0299,-0.029,-0.0326,-0.0255,-0.0245,-0.0221,-0.0225,-0.0203,-0.02,-0.0148,-0.0149,-0.015,-0.0204,0,0,0,0,0,0,-0.0425,-0.0422,-0.0425,-0.0399,-0.0393,-0.0384,-0.036,-0.0353,-0.0342,-0.0339,-0.0293,-0.0284,-0.0254,-0.0226,-0.0218,-0.022,-0.0198,-0.0148,-0.0149,-0.0149,-0.0201,-0.0206,-0.021,0,0,0,0,0,-0.0427,-0.0435,-0.0425,-0.0422,-0.0397,-0.0384,-0.038,-0.0355,-0.0343,-0.0343,-0.0312,-0.0285,-0.0225,-0.0224,-0.0214,-0.0216,-0.0148,-0.0148,-0.0149,-0.0199,-0.0205,-0.021,0,0,0,0,0,0,-0.045,-0.0431,-0.042,-0.0421,-0.0407,-0.0378,-0.0376,-0.036,-0.0336,-0.0332,-0.0289,-0.0278,-0.0259,-0.0232,-0.0232,-0.0203,-0.0182,-0.0181,-0.0223,-0.0228,-0.0233,-0.0238,-0.0195,0,0,0,0,0,-0.0457,-0.0457,-0.0436,-0.0437,-0.0432,-0.0405,-0.0397,-0.0382,-0.0357,-0.0347,-0.0315,-0.0282,-0.0256,-0.0239,-0.0212,-0.0195,-0.0159,-0.019,-0.0195,-0.0198,-0.0197,-0.0149,-0.0149,-0.0153,-0.0153,-0.0153,0,0,-0.0466,-0.0456,-0.0456,-0.0442,-0.0427,-0.0429,-0.0398,-0.0391,-0.0389,-0.034,-0.0327,-0.0296,-0.0256,-0.0238,-0.0227,-0.0215,-0.018,-0.02,-0.0203,-0.0199,-0.015,-0.0149,-0.0149,-0.0153,-0.0153,-0.0153,0,0,-0.0491,-0.0476,-0.0487,-0.0479,-0.0465,-0.0448,-0.0449,-0.0423,-0.0408,-0.0393,-0.0359,-0.033,-0.0292,-0.0262,-0.0242,-0.0254,-0.0207,-0.0248,-0.027,-0.0224,-0.0223,-0.0222,-0.0183,-0.0178,-0.0248,-0.0248,-0.0248,0,-0.0504,-0.0514,-0.0488,-0.0499,-0.0498,-0.0461,-0.0474,-0.0454,-0.0424,-0.0411,-0.0397,-0.0335,-0.0302,-0.0273,-0.0279,-0.0262,-0.0231,-0.0255,-0.0229,-0.0227,-0.0225,-0.0185,-0.0179,-0.0251,-0.0251,-0.0251,-0.025,0,-0.0538,-0.0546,-0.0552,-0.0552,-0.0546,-0.0552,-0.0524,-0.0512,-0.0488,-0.0462,-0.0429,-0.0381,-0.0343,-0.033,-0.0307,-0.0278,-0.026,-0.0242,-0.0217,-0.0228,-0.0186,-0.0178,-0.0255,-0.0254,-0.0253,-0.0253,0,0,-0.0568,-0.0576,-0.0579,-0.0593,-0.0577,-0.0578,-0.057,-0.0551,-0.0544,-0.0502,-0.0483,-0.0435,-0.04,-0.0376,-0.0338,-0.0297,-0.0258,-0.0269,-0.0265,-0.0231,-0.016,-0.0127,-0.0115,-0.0235,-0.0234,-0.0233,-0.0139,0,-0.0605,-0.0643,-0.063,-0.0661,-0.0679,-0.0645,-0.0641,-0.0615,-0.0581,-0.0551,-0.0487,-0.0455,-0.042,-0.0401,-0.0355,-0.0282,-0.0239,-0.0285,-0.0153,-0.0149,-0.0119,-0.0105,-0.0106,-0.002,-0.0131,-0.013,-0.0129,0,-0.0644,-0.0665,-0.0706,-0.0722,-0.0724,-0.0731,-0.0715,-0.0708,-0.0649,-0.062,-0.0567,-0.0512,-0.0446,-0.0415,-0.0289,-0.0321,-0.0248,-0.0187,-0.0181,-0.0125,-0.0101,-0.0025,-0.0001,0.0132,-0.0116,-0.0117,-0.0118,0,-0.0688,-0.0719,-0.0755,-0.0762,-0.0768,-0.0773,-0.0769,-0.0728,-0.0722,-0.0658,-0.0638,-0.0547,-0.0501,-0.0397,-0.0271,-0.0279,-0.0125,-0.0119,-0.0019,-0.0016,0.0024,0.0028,0.0193,-0.0027,-0.0028,-0.0028,-0.0028,0,-0.0737,-0.0766,-0.078,-0.0803,-0.0842,-0.0821,-0.0841,-0.0818,-0.078,-0.0775,-0.0678,-0.0643,-0.0494,-0.0386,-0.0275,-0.0118,-0.0125,-0.0015,0.0016,0.0004,0.0005,0.0156,0.0227,-0.0024,-0.0025,-0.0026,-0.0026,0,-0.0784,-0.0792,-0.084,-0.086,-0.0868,-0.0895,-0.0904,-0.0914,-0.0863,-0.0851,-0.0832,-0.0709,-0.0567,-0.0408,-0.0228,-0.0126,0.0111,0.0078,0.0052,0.0077,0.0283,0.035,0.0581,0.0637,0.0199,0.02,0.0201,0,-0.0812,-0.0841,-0.0891,-0.0925,-0.0938,-0.097,-0.0992,-0.0963,-0.0969,-0.0892,-0.0887,-0.0743,-0.0643,-0.0356,-0.0144,0.0071,0.0183,0.0201,0.0188,0.0309,0.0406,0.0469,0.0502,0.0217,0.0218,0.0219,0.022,0,-0.0866,-0.0881,-0.0922,-0.0997,-0.1036,-0.1082,-0.1104,-0.1121,-0.1081,-0.1057,-0.0989,-0.0897,-0.0602,-0.0349,-0.0048,0.0082,0.0308,0.0228,0.0368,0.0452,0.052,0.0582,0.0136,0.0229,0.0228,0.0227,0.0227,0.0227,-0.0899,-0.0944,-0.1,-0.1068,-0.1123,-0.1183,-0.1222,-0.1236,-0.1249,-0.1211,-0.1083,-0.0944,-0.0523,-0.0099,0.006,0.0406,0.0408,0.0502,0.0577,0.0634,0.0685,0.0258,0.0375,0.0375,0.0375,0.0375,0.0375,0,-0.0942,-0.0993,-0.1067,-0.115,-0.1227,-0.1237,-0.1291,-0.1325,-0.1355,-0.1287,-0.1203,-0.0784,-0.037,0.0023,0.0547,0.0746,0.0779,0.0846,0.0932,0.0949,0.0582,0.0577,0.0727,0.0727,0.0727,0.0727,0.0727,0.0726,-0.0966,-0.1047,-0.1089,-0.1221,-0.1281,-0.1374,-0.141,-0.1451,-0.1425,-0.1317,-0.1123,-0.0951,-0.0302,0.0632,0.1108,0.1134,0.1282,0.129,0.1379,0.1119,0.1092,0.1066,0.1079,0.1331,0.1332,0.1698,0.1702,0.1705]}],[{"header":{"parameterUnit":"m.s-1","parameterCategory":2,"la1":30.2991,"la2":30.254,"lo1":-89.0895,"lo2":-89.0444,"dy":0.0017,"dx":0.0017,"nx":28,"ny":28,"refTime":"2024-11-28T03:00:00:Z","depth":"2","parameterNumber":2,"parameterNumberName":"U-component_of_CURRENTS"},"data":[0,0,0,0,0,0,0,0,0,0,0,0,0,0,0,0,0,0,0,0,0,0,0,0,0,0,0,0,0,0,0,0,0,0,0,0,0,0,0,0,0,0,0,0,0,0,0,0,0,0,0,0,0,0,0,0,0,0,-0.2257,-0.2258,0,-0.2276,-0.2276,-0.2276,-0.2253,-0.2252,-0.2252,-0.2251,-0.2249,-0.2249,-0.225,0,0,0,0,0,0,0,0,0,0,0,0,0,-0.2216,-0.2217,-0.2257,-0.2258,-0.2258,-0.2276,-0.2276,-0.2276,-0.2253,-0.2252,-0.2252,-0.2251,-0.2248,-0.2249,-0.225,0,0,0,0,0,0,0,0,0,0,0,0,0,-0.2233,-0.2217,-0.2257,-0.225,-0.225,-0.2276,-0.2276,-0.2276,-0.2253,-0.2252,-0.2251,-0.225,-0.2248,-0.2249,-0.225,-0.2277,0,0,-0.2253,-0.2253,0,0,0,0,0,0,0,0,-0.2232,-0.2234,-0.2251,-0.225,-0.225,-0.2263,-0.2261,-0.2276,-0.2254,-0.225,-0.2251,-0.225,-0.2253,-0.2254,-0.2257,-0.2276,-0.2276,-0.2253,-0.2253,-0.2254,-0.2254,0,0,0,0,0,0,0,-0.2231,-0.2233,-0.2263,-0.2251,-0.2251,-0.2251,-0.2252,-0.2264,-0.2256,-0.2251,-0.2249,-0.2254,-0.2252,-0.2257,-0.2257,-0.2276,-0.2253,-0.2253,-0.2254,-0.2254,-0.2312,-0.2313,0,0,0,0,0,0,-0.2232,-0.2232,-0.2263,-0.2264,-0.224,-0.2252,-0.2253,-0.2258,-0.2256,-0.2255,-0.2255,-0.2253,-0.2256,-0.2256,-0.2257,-0.2283,-0.2254,-0.2254,-0.2255,-0.2311,-0.2313,-0.2314,0,0,0,0,0,0,-0.2231,-0.2235,-0.2262,-0.225,-0.2253,-0.2254,-0.226,-0.2259,-0.2259,-0.226,-0.2258,-0.2256,-0.2255,-0.2256,-0.2269,-0.2283,-0.2255,-0.2256,-0.231,-0.2312,-0.2313,-0.2339,0,0,0,0,0,0,-0.223,-0.2234,-0.2236,-0.225,-0.2254,-0.2279,-0.2261,-0.2261,-0.2265,-0.2262,-0.226,-0.2259,-0.2254,-0.2268,-0.227,-0.2284,-0.2256,-0.2309,-0.2311,-0.2313,-0.2337,-0.2342,-0.2345,0,0,0,0,0,-0.2228,-0.2238,-0.2236,-0.2239,-0.2257,-0.228,-0.2283,-0.2278,-0.2266,-0.2273,-0.2271,-0.2259,-0.2281,-0.227,-0.2272,-0.2286,-0.2308,-0.231,-0.2313,-0.2335,-0.2341,-0.2345,0,0,0,0,0,0,-0.222,-0.2237,-0.2235,-0.2248,-0.2263,-0.2277,-0.2282,-0.2281,-0.2286,-0.2279,-0.2273,-0.2273,-0.229,-0.2289,-0.2276,-0.231,-0.2293,-0.2296,-0.2309,-0.2314,-0.2318,-0.2317,-0.2257,0,0,0,0,0,-0.2221,-0.2228,-0.2248,-0.2256,-0.2265,-0.2274,-0.2281,-0.2282,-0.229,-0.229,-0.229,-0.2293,-0.2304,-0.2308,-0.2316,-0.2337,-0.2331,-0.2348,-0.2352,-0.2356,-0.2357,-0.2368,-0.2373,-0.2321,-0.2321,-0.2321,0,0,-0.2218,-0.2229,-0.2232,-0.2255,-0.2263,-0.2285,-0.2274,-0.229,-0.2306,-0.2291,-0.2306,-0.2307,-0.2313,-0.2334,-0.2341,-0.2332,-0.2366,-0.2359,-0.2361,-0.2361,-0.2371,-0.2376,-0.238,-0.2323,-0.2322,-0.2322,0,0,-0.2223,-0.2229,-0.2239,-0.2258,-0.2278,-0.229,-0.2296,-0.2314,-0.2317,-0.2338,-0.2331,-0.2343,-0.2357,-0.2366,-0.2372,-0.2407,-0.2388,-0.2407,-0.2426,-0.2437,-0.2441,-0.2444,-0.2436,-0.2439,-0.2409,-0.2409,-0.2409,0,-0.222,-0.2236,-0.2247,-0.2268,-0.2284,-0.2294,-0.2316,-0.233,-0.2348,-0.2357,-0.2345,-0.2374,-0.2375,-0.2406,-0.2413,-0.2416,-0.2409,-0.2405,-0.2441,-0.2445,-0.2448,-0.2439,-0.2441,-0.241,-0.241,-0.241,-0.241,0,-0.2235,-0.2251,-0.2262,-0.229,-0.2311,-0.2332,-0.2359,-0.2375,-0.2379,-0.2391,-0.2417,-0.2422,-0.2437,-0.2442,-0.2436,-0.2464,-0.2446,-0.2444,-0.2426,-0.2454,-0.2443,-0.2445,-0.2413,-0.2412,-0.2412,-0.2411,0,0,-0.2216,-0.2262,-0.2265,-0.228,-0.2324,-0.2342,-0.2379,-0.2413,-0.2431,-0.2447,-0.2469,-0.249,-0.2486,-0.2493,-0.2491,-0.2498,-0.2509,-0.2477,-0.2476,-0.2463,-0.2515,-0.2485,-0.2484,-0.2508,-0.2509,-0.2509,-0.2495,0,-0.2221,-0.2257,-0.2285,-0.2321,-0.2342,-0.2375,-0.2409,-0.2441,-0.2463,-0.2487,-0.25,-0.2518,-0.2509,-0.2511,-0.2521,-0.2512,-0.2516,-0.2512,-0.2494,-0.2494,-0.2459,-0.2487,-0.2277,-0.2246,-0.2497,-0.2497,-0.2498,0,-0.2222,-0.2247,-0.2282,-0.2333,-0.2346,-0.2372,-0.2421,-0.2454,-0.25,-0.2516,-0.2542,-0.2549,-0.2568,-0.2551,-0.2558,-0.2552,-0.2536,-0.2526,-0.2526,-0.249,-0.2469,-0.226,-0.224,-0.2501,-0.2501,-0.25,-0.25,0,-0.2187,-0.2243,-0.2266,-0.2284,-0.2347,-0.2368,-0.24,-0.2455,-0.2485,-0.2529,-0.2552,-0.2576,-0.2587,-0.2581,-0.2568,-0.2558,-0.2566,-0.2552,-0.2513,-0.251,-0.2325,-0.2305,-0.2558,-0.2558,-0.2558,-0.2559,-0.2559,0,-0.2176,-0.2192,-0.2248,-0.2259,-0.2289,-0.2343,-0.2379,-0.2419,-0.2478,-0.2515,-0.2556,-0.2587,-0.2594,-0.2603,-0.2579,-0.2555,-0.2579,-0.252,-0.251,-0.2328,-0.231,-0.2528,-0.2524,-0.2558,-0.2558,-0.2558,-0.2558,0,-0.2126,-0.2166,-0.2192,-0.2252,-0.227,-0.2287,-0.2359,-0.2384,-0.2454,-0.2503,-0.2518,-0.259,-0.2603,-0.2605,-0.2596,-0.257,-0.2547,-0.2533,-0.2314,-0.228,-0.2476,-0.2474,-0.2478,-0.2477,-0.2477,-0.2476,-0.2475,0,-0.2101,-0.2108,-0.2165,-0.2175,-0.2197,-0.2236,-0.2262,-0.2349,-0.2385,-0.2504,-0.252,-0.2572,-0.2596,-0.2584,-0.252,-0.2471,-0.2531,-0.2268,-0.2224,-0.248,-0.247,-0.247,-0.247,-0.1976,-0.1972,-0.1968,-0.1965,0,-0.2042,-0.206,-0.2077,-0.2101,-0.2125,-0.216,-0.2209,-0.2242,-0.235,-0.2409,-0.2489,-0.2525,-0.2526,-0.2393,-0.2344,-0.2284,-0.2258,-0.2193,-0.2504,-0.205,-0.2011,-0.2001,-0.2015,-0.1931,-0.1934,-0.1937,-0.1939,-0.194,-0.1981,-0.1976,-0.1994,-0.2007,-0.2037,-0.206,-0.2057,-0.213,-0.2185,-0.2238,-0.236,-0.2346,-0.2316,-0.2147,-0.2038,-0.1938,-0.2101,-0.1987,-0.1996,-0.2009,-0.1975,-0.1939,-0.1837,-0.1839,-0.1842,-0.1844,-0.1846,0,-0.1887,-0.1891,-0.1899,-0.1907,-0.1888,-0.1948,-0.1994,-0.1961,-0.1983,-0.2065,-0.2106,-0.1913,-0.1836,-0.1808,-0.1614,-0.1588,-0.1532,-0.1505,-0.1422,-0.1457,-0.1489,-0.1425,-0.1142,-0.114,-0.1138,-0.1136,0,0,-0.1838,-0.1801,-0.1804,-0.1741,-0.175,-0.1691,-0.1694,-0.1674,-0.1692,-0.166,-0.1655,-0.1782,-0.1808,-0.1492,-0.1398,-0.125,-0.1339,-0.118,-0.1747,-0.1688,-0.1717,-0.1771,-0.1715,0,0,0,0,0]},{"header":{"parameterUnit":"m.s-1","parameterCategory":2,"la1":30.2991,"la2":30.254,"lo1":-89.0895,"lo2":-89.0444,"dy":0.0017,"dx":0.0017,"nx":28,"ny":28,"refTime":"2024-11-28T03:00:00:Z","depth":"2","parameterNumber":3,"parameterNumberName":"V-component_of_CURRENTS"},"data":[0,0,0,0,0,0,0,0,0,0,0,0,0,0,0,0,0,0,0,0,0,0,0,0,0,0,0,0,0,0,0,0,0,0,0,0,0,0,0,0,0,0,0,0,0,0,0,0,0,0,0,0,0,0,0,0,0,0,-0.0327,-0.0327,0,-0.0278,-0.0277,-0.0277,-0.0238,-0.0237,-0.0237,-0.0237,-0.0147,-0.0145,-0.0143,0,0,0,0,0,0,0,0,0,0,0,0,0,-0.0358,-0.0358,-0.0327,-0.0327,-0.0326,-0.0278,-0.0277,-0.0276,-0.0238,-0.0237,-0.0237,-0.0237,-0.0148,-0.0146,-0.0143,0,0,0,0,0,0,0,0,0,0,0,0,0,-0.033,-0.0358,-0.0327,-0.0302,-0.0299,-0.0278,-0.0277,-0.0276,-0.0238,-0.0237,-0.0237,-0.0237,-0.0149,-0.0146,-0.0143,-0.0131,0,0,-0.0133,-0.0131,0,0,0,0,0,0,0,0,-0.0331,-0.0328,-0.0306,-0.0304,-0.0301,-0.0265,-0.0255,-0.0226,-0.0238,-0.026,-0.0237,-0.0236,-0.0184,-0.0178,-0.0168,-0.0127,-0.0123,-0.0133,-0.0131,-0.0129,-0.0128,0,0,0,0,0,0,0,-0.0333,-0.033,-0.0306,-0.0306,-0.0302,-0.0283,-0.0279,-0.025,-0.0223,-0.0258,-0.0255,-0.0252,-0.0182,-0.0172,-0.0166,-0.0122,-0.0133,-0.013,-0.0128,-0.0127,-0.007,-0.007,0,0,0,0,0,0,-0.0344,-0.0332,-0.0308,-0.0305,-0.0317,-0.0283,-0.0278,-0.0276,-0.0224,-0.0217,-0.0252,-0.025,-0.0177,-0.017,-0.0163,-0.0152,-0.0129,-0.0126,-0.0124,-0.0069,-0.007,-0.007,0,0,0,0,0,0,-0.0345,-0.0342,-0.031,-0.0318,-0.0313,-0.0283,-0.0281,-0.0275,-0.0265,-0.0221,-0.0212,-0.0249,-0.0177,-0.0167,-0.0143,-0.0148,-0.0125,-0.0122,-0.0069,-0.007,-0.007,-0.0126,0,0,0,0,0,0,-0.0346,-0.0343,-0.0346,-0.0319,-0.0313,-0.0304,-0.0281,-0.0274,-0.0264,-0.0261,-0.0215,-0.0206,-0.0175,-0.0148,-0.014,-0.0143,-0.012,-0.0068,-0.0069,-0.007,-0.0124,-0.0128,-0.0133,0,0,0,0,0,-0.0347,-0.0355,-0.0346,-0.0344,-0.0318,-0.0305,-0.03,-0.0276,-0.0265,-0.0265,-0.0235,-0.0207,-0.0147,-0.0146,-0.0136,-0.0138,-0.0068,-0.0069,-0.007,-0.0122,-0.0127,-0.0132,0,0,0,0,0,0,-0.0371,-0.0352,-0.0341,-0.0343,-0.0328,-0.0299,-0.0297,-0.0281,-0.0258,-0.0254,-0.0211,-0.02,-0.0181,-0.0154,-0.0154,-0.0125,-0.0103,-0.0102,-0.0146,-0.0151,-0.0156,-0.0162,-0.0117,0,0,0,0,0,-0.0379,-0.0379,-0.0357,-0.0359,-0.0353,-0.0326,-0.0318,-0.0303,-0.0279,-0.0268,-0.0237,-0.0204,-0.0178,-0.016,-0.0133,-0.0116,-0.0081,-0.0112,-0.0116,-0.012,-0.0119,-0.0074,-0.0074,-0.0073,-0.0073,-0.0073,0,0,-0.0388,-0.0378,-0.0378,-0.0364,-0.0349,-0.035,-0.032,-0.0313,-0.0311,-0.0262,-0.0249,-0.0218,-0.0177,-0.016,-0.0149,-0.0137,-0.0104,-0.0121,-0.0125,-0.0122,-0.0075,-0.0075,-0.0075,-0.0074,-0.0074,-0.0074,0,0,-0.0413,-0.0399,-0.041,-0.0402,-0.0387,-0.037,-0.0371,-0.0346,-0.0331,-0.0316,-0.0281,-0.0254,-0.0215,-0.0185,-0.0165,-0.0177,-0.0131,-0.0171,-0.0194,-0.0151,-0.015,-0.015,-0.0113,-0.0108,-0.0171,-0.0171,-0.0171,0,-0.0427,-0.0437,-0.0411,-0.0421,-0.042,-0.0383,-0.0397,-0.0377,-0.0347,-0.0334,-0.032,-0.0259,-0.0225,-0.0197,-0.0203,-0.0186,-0.0156,-0.0178,-0.0156,-0.0155,-0.0153,-0.0115,-0.011,-0.0174,-0.0174,-0.0173,-0.0173,0,-0.046,-0.0469,-0.0475,-0.0475,-0.0468,-0.0474,-0.0446,-0.0435,-0.0411,-0.0386,-0.0354,-0.0306,-0.0268,-0.0255,-0.0231,-0.0205,-0.0187,-0.0169,-0.0144,-0.0156,-0.0116,-0.0109,-0.0178,-0.0177,-0.0176,-0.0176,0,0,-0.0492,-0.0499,-0.0502,-0.0516,-0.0499,-0.0501,-0.0493,-0.0475,-0.0469,-0.0427,-0.0411,-0.0362,-0.0329,-0.0304,-0.0266,-0.0227,-0.0192,-0.0198,-0.0195,-0.0164,-0.0099,-0.0068,-0.0057,-0.017,-0.0169,-0.0168,-0.0079,0,-0.0529,-0.0566,-0.0553,-0.0584,-0.0602,-0.0568,-0.0564,-0.0539,-0.0506,-0.0479,-0.0415,-0.0385,-0.0349,-0.0331,-0.0287,-0.0215,-0.0174,-0.0218,-0.009,-0.0086,-0.0057,-0.0048,-0.0073,0.0006,-0.0072,-0.0071,-0.007,0,-0.0568,-0.0589,-0.063,-0.0645,-0.0648,-0.0654,-0.064,-0.0633,-0.0577,-0.0549,-0.0499,-0.0445,-0.0381,-0.0349,-0.0228,-0.0258,-0.0186,-0.0127,-0.0121,-0.0065,-0.0041,0.0008,0.0023,-0.0057,-0.0058,-0.0059,-0.006,0,-0.0613,-0.0643,-0.0679,-0.0686,-0.0692,-0.0698,-0.0694,-0.0654,-0.065,-0.0589,-0.0571,-0.0484,-0.0439,-0.0338,-0.0214,-0.0221,-0.0074,-0.0066,0.0032,0.0034,0.0053,0.0056,0.0022,0.0022,0.0022,0.0021,0.0021,0,-0.0662,-0.0691,-0.0705,-0.0728,-0.0767,-0.0747,-0.0768,-0.0746,-0.071,-0.0707,-0.0612,-0.058,-0.0433,-0.033,-0.0221,-0.0068,-0.0076,0.0034,0.0064,0.0032,0.0032,0.0008,0.0005,0.0025,0.0024,0.0023,0.0023,0,-0.0709,-0.0717,-0.0765,-0.0785,-0.0793,-0.0821,-0.083,-0.0842,-0.0794,-0.0784,-0.0766,-0.0647,-0.051,-0.0354,-0.018,-0.0078,0.0064,0.012,0.0071,0.0093,0.0142,0.0135,0.0232,0.0234,0.0236,0.0237,0.0239,0,-0.0737,-0.0766,-0.0816,-0.085,-0.0863,-0.0896,-0.0919,-0.0891,-0.0898,-0.0825,-0.0822,-0.0684,-0.0587,-0.0308,-0.0105,0.0104,0.0109,0.0211,0.0197,0.0147,0.0166,0.0156,0.0147,0.0196,0.0196,0.0197,0.0197,0,-0.0791,-0.0807,-0.0847,-0.0922,-0.0962,-0.1007,-0.1031,-0.1048,-0.101,-0.0988,-0.0924,-0.0836,-0.0554,-0.0319,-0.0026,0.0096,0.0176,0.023,0.0204,0.0144,0.0119,0.0135,0.0127,0.0203,0.0202,0.0202,0.0202,0.0201,-0.0825,-0.087,-0.0925,-0.0993,-0.1049,-0.1108,-0.1146,-0.1153,-0.1165,-0.1112,-0.1008,-0.0853,-0.0589,-0.0188,0.0036,0.0248,0.0228,0.029,0.0285,0.0281,0.0259,0.0238,0.0339,0.034,0.034,0.034,0.034,0,-0.0864,-0.0919,-0.0993,-0.1075,-0.1145,-0.1162,-0.1215,-0.1224,-0.1242,-0.1159,-0.1072,-0.0778,-0.0485,-0.0204,0.0126,0.0325,0.031,0.037,0.0309,0.0303,0.0297,0.0274,0.036,0.036,0.0361,0.0362,0,0,-0.0887,-0.0965,-0.1007,-0.1134,-0.1199,-0.1277,-0.1312,-0.1308,-0.1253,-0.1176,-0.1054,-0.0852,-0.0504,-0.0258,0.0005,0.0188,0.0191,0.0209,0.017,0.006,0.0052,0.0227,0.0181,0,0,0,0,0]}],[{"header":{"parameterUnit":"m.s-1","parameterCategory":2,"la1":30.2991,"la2":30.254,"lo1":-89.0895,"lo2":-89.0444,"dy":0.0017,"dx":0.0017,"nx":28,"ny":28,"refTime":"2024-11-28T03:00:00:Z","depth":"4","parameterNumber":2,"parameterNumberName":"U-component_of_CURRENTS"},"data":[0,0,0,0,0,0,0,0,0,0,0,0,0,0,0,0,0,0,0,0,0,0,0,0,0,0,0,0,0,0,0,0,0,0,0,0,0,0,0,0,0,0,0,0,0,0,0,0,0,0,0,0,0,0,0,0,0,0,-0.1581,-0.1582,0,-0.1643,-0.1643,-0.1644,-0.1678,-0.1678,-0.1678,-0.1678,-0.1738,-0.1739,-0.1741,0,0,0,0,0,0,0,0,0,0,0,0,0,-0.149,-0.1491,-0.1581,-0.1582,-0.1583,-0.1643,-0.1643,-0.1644,-0.1678,-0.1678,-0.1678,-0.1679,-0.1738,-0.1739,-0.1741,0,0,0,0,0,0,0,0,0,0,0,0,0,-0.1536,-0.1491,-0.1581,-0.1608,-0.1611,-0.1642,-0.1643,-0.1644,-0.1678,-0.1678,-0.1678,-0.1679,-0.1737,-0.1739,-0.1741,-0.1746,0,0,-0.1747,-0.1748,0,0,0,0,0,0,0,0,-0.1534,-0.154,-0.1603,-0.1606,-0.161,-0.1654,-0.1633,-0.1679,-0.1678,-0.1651,-0.1678,-0.1679,-0.1711,-0.1715,-0.1723,-0.1749,-0.1752,-0.1748,-0.1749,-0.175,-0.175,0,0,0,0,0,0,0,-0.153,-0.1537,-0.1604,-0.1604,-0.1608,-0.1616,-0.1623,-0.1642,-0.1677,-0.1653,-0.1656,-0.1665,-0.1712,-0.1721,-0.1725,-0.1753,-0.1748,-0.1749,-0.1751,-0.1751,-0.1855,-0.1856,0,0,0,0,0,0,-0.1526,-0.1534,-0.1602,-0.1606,-0.1574,-0.1618,-0.1625,-0.1638,-0.1677,-0.1683,-0.1665,-0.1667,-0.1718,-0.1723,-0.1727,-0.1799,-0.175,-0.1752,-0.1753,-0.1853,-0.1855,-0.1857,0,0,0,0,0,0,-0.1524,-0.1532,-0.1599,-0.1572,-0.1582,-0.1619,-0.1633,-0.1639,-0.1673,-0.1686,-0.1692,-0.1696,-0.1718,-0.1724,-0.1769,-0.1799,-0.1753,-0.1754,-0.1851,-0.1854,-0.1856,-0.1902,0,0,0,0,0,0,-0.1521,-0.1531,-0.1551,-0.1572,-0.1583,-0.1636,-0.1633,-0.164,-0.1678,-0.1681,-0.1714,-0.1718,-0.1719,-0.1766,-0.1771,-0.1801,-0.1756,-0.1849,-0.1852,-0.1855,-0.1898,-0.1905,-0.1911,0,0,0,0,0,-0.1518,-0.154,-0.1551,-0.156,-0.1606,-0.1637,-0.1644,-0.167,-0.1679,-0.1701,-0.1725,-0.1719,-0.1788,-0.1769,-0.1775,-0.1806,-0.1848,-0.1852,-0.1855,-0.1895,-0.1904,-0.1911,0,0,0,0,0,0,-0.1512,-0.1547,-0.1559,-0.1592,-0.1622,-0.1644,-0.1671,-0.1685,-0.1721,-0.1732,-0.1739,-0.1746,-0.1795,-0.1796,-0.1776,-0.1845,-0.1817,-0.1822,-0.1846,-0.1854,-0.186,-0.1852,-0.1758,0,0,0,0,0,-0.1519,-0.1547,-0.1577,-0.1607,-0.1624,-0.1652,-0.1673,-0.1691,-0.1719,-0.1737,-0.176,-0.1785,-0.1809,-0.1829,-0.1849,-0.1889,-0.1875,-0.1912,-0.1919,-0.1924,-0.1922,-0.1932,-0.1939,-0.1868,-0.1868,-0.1868,0,0,-0.1526,-0.1549,-0.1566,-0.1608,-0.1633,-0.1665,-0.1666,-0.1707,-0.1739,-0.1737,-0.1795,-0.181,-0.1825,-0.1868,-0.1891,-0.1877,-0.1938,-0.1929,-0.1933,-0.1928,-0.1937,-0.1943,-0.1949,-0.187,-0.187,-0.1869,0,0,-0.1543,-0.1575,-0.1602,-0.163,-0.1675,-0.1693,-0.171,-0.175,-0.1777,-0.1827,-0.1833,-0.1869,-0.1911,-0.1926,-0.1937,-0.1992,-0.1971,-0.2004,-0.2033,-0.2043,-0.2048,-0.2053,-0.2041,-0.2044,-0.2008,-0.2009,-0.2009,0,-0.1552,-0.1588,-0.1615,-0.1648,-0.1677,-0.1708,-0.1743,-0.1774,-0.1826,-0.1849,-0.1855,-0.1921,-0.1936,-0.198,-0.1999,-0.2007,-0.1999,-0.2,-0.205,-0.2054,-0.2058,-0.2044,-0.2047,-0.2011,-0.2011,-0.2011,-0.201,0,-0.1579,-0.1621,-0.1641,-0.1692,-0.1727,-0.1764,-0.1807,-0.1848,-0.1883,-0.1908,-0.1967,-0.199,-0.2024,-0.204,-0.2037,-0.2079,-0.2059,-0.2054,-0.2026,-0.2068,-0.2051,-0.2053,-0.2015,-0.2014,-0.2013,-0.2013,0,0,-0.1562,-0.1645,-0.1655,-0.1686,-0.1755,-0.1781,-0.1843,-0.1897,-0.1933,-0.1986,-0.2027,-0.2077,-0.2086,-0.2099,-0.2106,-0.2118,-0.214,-0.2101,-0.21,-0.208,-0.2147,-0.2022,-0.2011,-0.2144,-0.2145,-0.2145,-0.2122,0,-0.1576,-0.164,-0.1682,-0.1747,-0.1781,-0.1835,-0.1885,-0.1939,-0.1984,-0.2031,-0.2065,-0.2106,-0.211,-0.2128,-0.2146,-0.2139,-0.2149,-0.2146,-0.2116,-0.2115,-0.1991,-0.2011,-0.2148,-0.2123,-0.2124,-0.2124,-0.2124,0,-0.1581,-0.1626,-0.1692,-0.1772,-0.1792,-0.1839,-0.1917,-0.1965,-0.2033,-0.2069,-0.2117,-0.2137,-0.2174,-0.2167,-0.2184,-0.2182,-0.217,-0.2162,-0.2161,-0.2026,-0.1993,-0.2074,-0.2127,-0.2127,-0.2127,-0.2127,-0.2127,0,-0.1536,-0.1628,-0.1682,-0.1711,-0.1806,-0.185,-0.1901,-0.1978,-0.2017,-0.2089,-0.2119,-0.2166,-0.219,-0.2193,-0.2186,-0.2187,-0.2185,-0.2182,-0.2059,-0.2049,-0.2149,-0.2145,-0.2191,-0.2191,-0.2191,-0.2191,-0.2191,0,-0.1516,-0.1561,-0.167,-0.1697,-0.1758,-0.1832,-0.1896,-0.1953,-0.2028,-0.2061,-0.2132,-0.2152,-0.2199,-0.2204,-0.2191,-0.212,-0.2191,-0.2055,-0.2035,-0.2169,-0.2167,-0.215,-0.2146,-0.219,-0.219,-0.2191,-0.2191,0,-0.1451,-0.1528,-0.1591,-0.1702,-0.1738,-0.1779,-0.1886,-0.1919,-0.2007,-0.2049,-0.2072,-0.2146,-0.2145,-0.2168,-0.2165,-0.2108,-0.2064,-0.2026,-0.2157,-0.2146,-0.192,-0.1918,-0.1872,-0.1868,-0.1864,-0.1861,-0.1858,0,-0.142,-0.1449,-0.1574,-0.1609,-0.1663,-0.174,-0.1783,-0.1891,-0.1919,-0.2024,-0.202,-0.2068,-0.2098,-0.1983,-0.2031,-0.1985,-0.1972,-0.1935,-0.1934,-0.1902,-0.1887,-0.1892,-0.1896,-0.1852,-0.185,-0.1849,-0.1848,0,-0.135,-0.141,-0.1461,-0.1531,-0.1591,-0.1644,-0.1713,-0.1723,-0.1828,-0.1932,-0.191,-0.1904,-0.19,-0.1888,-0.1866,-0.184,-0.1947,-0.1893,-0.1902,-0.1901,-0.1876,-0.1867,-0.1875,-0.1835,-0.1837,-0.1838,-0.1839,0,-0.1297,-0.1313,-0.1385,-0.143,-0.1501,-0.1514,-0.1572,-0.1596,-0.1639,-0.1755,-0.1743,-0.1799,-0.1873,-0.1812,-0.1794,-0.1754,-0.1732,-0.1677,-0.1696,-0.1711,-0.1671,-0.1618,-0.1469,0,0,0,0,0,-0.123,-0.1234,-0.1273,-0.1315,-0.1377,-0.1412,-0.1504,-0.1562,-0.167,-0.1606,-0.1668,-0.1656,-0.163,-0.1665,-0.1588,-0.1729,-0.1743,-0.1634,-0.1691,-0.1759,-0.1775,-0.1744,0,0,0,0,0,0,-0.1186,-0.1221,-0.1231,-0.12,-0.1203,-0.1252,-0.1305,-0.1383,-0.1355,-0.1472,-0.1461,-0.1553,-0.1548,-0.1639,-0.1551,-0.1561,-0.1564,-0.168,-0.1676,-0.175,-0.1764,-0.1777,-0.1751,0,0,0,0,0]},{"header":{"parameterUnit":"m.s-1","parameterCategory":2,"la1":30.2991,"la2":30.254,"lo1":-89.0895,"lo2":-89.0444,"dy":0.0017,"dx":0.0017,"nx":28,"ny":28,"refTime":"2024-11-28T03:00:00:Z","depth":"4","parameterNumber":3,"parameterNumberName":"V-component_of_CURRENTS"},"data":[0,0,0,0,0,0,0,0,0,0,0,0,0,0,0,0,0,0,0,0,0,0,0,0,0,0,0,0,0,0,0,0,0,0,0,0,0,0,0,0,0,0,0,0,0,0,0,0,0,0,0,0,0,0,0,0,0,0,-0.0127,-0.0127,0,-0.0092,-0.0092,-0.0091,-0.0066,-0.0065,-0.0065,-0.0065,0.0005,0.0007,0.0009,0,0,0,0,0,0,0,0,0,0,0,0,0,-0.0139,-0.0139,-0.0127,-0.0127,-0.0126,-0.0092,-0.0092,-0.0091,-0.0066,-0.0065,-0.0065,-0.0065,0.0005,0.0007,0.0009,0,0,0,0,0,0,0,0,0,0,0,0,0,-0.0121,-0.0139,-0.0127,-0.011,-0.0108,-0.0092,-0.0092,-0.0091,-0.0066,-0.0065,-0.0065,-0.0065,0.0004,0.0007,0.0009,0.0022,0,0,0.0017,0.0018,0,0,0,0,0,0,0,0,-0.0122,-0.0121,-0.0113,-0.0111,-0.0109,-0.0084,-0.007,-0.0052,-0.0066,-0.0081,-0.0065,-0.0065,-0.0022,-0.0017,-0.001,0.0025,0.0028,0.0018,0.0019,0.002,0.0021,0,0,0,0,0,0,0,-0.0124,-0.0122,-0.0112,-0.0113,-0.011,-0.0093,-0.0091,-0.0066,-0.0051,-0.0079,-0.0078,-0.0076,-0.002,-0.0013,-0.0008,0.0029,0.0018,0.002,0.0021,0.0023,0.0067,0.0067,0,0,0,0,0,0,-0.0132,-0.0123,-0.0113,-0.0111,-0.0117,-0.0094,-0.0091,-0.0091,-0.0052,-0.0047,-0.0076,-0.0075,-0.0017,-0.0011,-0.0006,-0.0004,0.002,0.0023,0.0024,0.0068,0.0067,0.0067,0,0,0,0,0,0,-0.0132,-0.0131,-0.0115,-0.0117,-0.0114,-0.0094,-0.0095,-0.0091,-0.0086,-0.005,-0.0044,-0.0076,-0.0017,-0.0009,0.0009,-0.0,0.0024,0.0026,0.0068,0.0067,0.0067,0.0009,0,0,0,0,0,0,-0.0133,-0.0132,-0.0137,-0.0118,-0.0114,-0.0112,-0.0095,-0.009,-0.0085,-0.0084,-0.0048,-0.0041,-0.0016,0.0004,0.0011,0.0004,0.0028,0.0068,0.0068,0.0067,0.0012,0.0007,0.0003,0,0,0,0,0,-0.0133,-0.0143,-0.0138,-0.0136,-0.0121,-0.0113,-0.0109,-0.0093,-0.0086,-0.0088,-0.0065,-0.0042,0.0005,0.0006,0.0014,0.0007,0.0069,0.0068,0.0067,0.0014,0.0008,0.0003,0,0,0,0,0,0,-0.0152,-0.0141,-0.0135,-0.014,-0.013,-0.0109,-0.011,-0.0098,-0.0082,-0.0081,-0.0046,-0.0037,-0.0025,-0.0001,-0.0,0.0018,0.004,0.0041,-0.0003,-0.0009,-0.0013,-0.0022,0.0031,0,0,0,0,0,-0.0159,-0.0163,-0.0148,-0.0153,-0.015,-0.0131,-0.0126,-0.0116,-0.0099,-0.0092,-0.0068,-0.0042,-0.0022,-0.001,0.0013,0.0024,0.0049,0.0024,0.002,0.0016,0.0014,0.0042,0.004,0.0064,0.0064,0.0064,0,0,-0.0167,-0.0162,-0.0165,-0.0158,-0.0148,-0.0152,-0.0128,-0.0125,-0.0128,-0.0086,-0.0082,-0.0056,-0.0023,-0.0013,-0.0005,0.0006,0.0021,0.0015,0.0011,0.0011,0.0041,0.0039,0.0037,0.0063,0.0063,0.0063,0,0,-0.0189,-0.0183,-0.0194,-0.019,-0.0182,-0.017,-0.0172,-0.0155,-0.0147,-0.014,-0.0112,-0.0093,-0.0062,-0.0041,-0.0026,-0.004,-0.0004,-0.0034,-0.0063,-0.0036,-0.0038,-0.0039,-0.0015,-0.0014,-0.0036,-0.0036,-0.0036,0,-0.0201,-0.0214,-0.0196,-0.0207,-0.021,-0.0182,-0.0198,-0.0185,-0.0165,-0.016,-0.0147,-0.0105,-0.0076,-0.0062,-0.0067,-0.0051,-0.003,-0.0047,-0.0042,-0.0043,-0.0043,-0.0018,-0.0016,-0.0039,-0.0039,-0.0038,-0.0038,0,-0.023,-0.0242,-0.0249,-0.0255,-0.0254,-0.0262,-0.0246,-0.0242,-0.0228,-0.0212,-0.0196,-0.0156,-0.0132,-0.012,-0.0097,-0.0087,-0.0071,-0.0052,-0.0031,-0.0049,-0.0022,-0.0018,-0.0043,-0.0042,-0.0041,-0.0041,0,0,-0.0252,-0.0268,-0.0271,-0.0288,-0.0283,-0.0288,-0.0291,-0.0287,-0.0293,-0.0263,-0.0264,-0.0225,-0.02,-0.0181,-0.0148,-0.0122,-0.0106,-0.0092,-0.009,-0.0073,-0.0049,-0.0041,-0.0036,-0.0087,-0.0087,-0.0087,-0.0031,0,-0.0282,-0.032,-0.0316,-0.0351,-0.037,-0.0352,-0.036,-0.0351,-0.0332,-0.0323,-0.0277,-0.0262,-0.0224,-0.0213,-0.0183,-0.0124,-0.0098,-0.0122,-0.003,-0.0027,-0.0021,-0.0032,-0.0085,-0.0028,-0.0027,-0.0027,-0.0026,0,-0.0311,-0.0335,-0.0378,-0.0408,-0.0414,-0.0429,-0.0438,-0.0441,-0.0415,-0.0399,-0.0369,-0.0329,-0.0288,-0.0252,-0.0165,-0.0183,-0.0123,-0.0074,-0.0071,-0.004,-0.0013,-0.0003,-0.002,-0.002,-0.0021,-0.0021,-0.0022,0,-0.0339,-0.0379,-0.0418,-0.0428,-0.0453,-0.0469,-0.0479,-0.0466,-0.0474,-0.0444,-0.0439,-0.0381,-0.0352,-0.0274,-0.017,-0.0169,-0.0069,-0.0054,0.001,0.0012,0.0014,0.0015,0.0008,0.0008,0.0008,0.0008,0.0008,0,-0.037,-0.0404,-0.0439,-0.0461,-0.0512,-0.051,-0.0548,-0.0543,-0.0537,-0.0547,-0.0482,-0.0467,-0.0356,-0.0281,-0.0188,-0.0079,-0.008,0.0003,0.0026,-0.0012,-0.0015,0.0017,0.0017,0.001,0.0009,0.0009,0.0009,0,-0.0391,-0.0414,-0.0467,-0.051,-0.0528,-0.0563,-0.0603,-0.0625,-0.0608,-0.0617,-0.061,-0.0532,-0.0435,-0.0316,-0.0183,-0.0106,0.0001,0.0044,-0.0009,0.0011,0.0066,0.0063,0.0108,0.0109,0.0109,0.011,0.011,0,-0.0403,-0.0432,-0.0506,-0.0547,-0.0571,-0.0621,-0.0657,-0.0663,-0.068,-0.0654,-0.0657,-0.057,-0.0504,-0.0312,-0.0183,-0.0009,0.0022,0.0076,0.0073,0.0058,0.0076,0.0072,0.0068,0.0111,0.0111,0.0112,0.0112,0,-0.0427,-0.0456,-0.05,-0.0587,-0.0641,-0.07,-0.0744,-0.0761,-0.0759,-0.0747,-0.0692,-0.0586,-0.0472,-0.0318,-0.0178,-0.0051,0.0037,0.0083,0.0082,0.0079,0.0063,0.0079,0.0074,0.0114,0.0114,0.0113,0.0113,0,-0.0441,-0.0481,-0.0546,-0.0618,-0.0695,-0.0755,-0.0776,-0.0788,-0.0798,-0.0759,-0.0741,-0.0608,-0.0531,-0.0338,-0.021,-0.0085,-0.0054,-0.0012,-0.0007,-0.0008,-0.0053,-0.0092,-0.0073,0,0,0,0,0,-0.0449,-0.0499,-0.0573,-0.0655,-0.0732,-0.0773,-0.0825,-0.0833,-0.0829,-0.0798,-0.0768,-0.0658,-0.046,-0.037,-0.0245,-0.02,-0.0035,-0.005,0.0014,0.0125,0.0123,0.0091,0,0,0,0,0,0,-0.0458,-0.0528,-0.0571,-0.0669,-0.0727,-0.0806,-0.0841,-0.0839,-0.0812,-0.0788,-0.0684,-0.0624,-0.0433,-0.0533,-0.0242,-0.0203,-0.0144,0.0045,0.0048,0.0127,0.0125,0.0123,0.0089,0,0,0,0,0]}]]